Weather History for Poteau, OK

Change the Weather History Date:

Tuesday, November 13, 2012

  Actual Average (KFSM) Record (KFSM)
Temperature  
Mean Temperature 44 °F 53 °F  
Max Temperature 59 °F 64 °F 86 °F (1955)
Min Temperature 28 °F 41 °F 17 °F (1986)
Degree Days  
Heating Degree Days 22 13  
Month to date heating degree days 135  
Since 1 July heating degree days 289  
Moisture  
Dew Point 31 °F    
Average Humidity 69    
Maximum Humidity 100    
Minimum Humidity 29    
Precipitation  
Precipitation 0.00 in 0.16 in 1.21 in (1902)
Month to date precipitation 1.96  
Year to date precipitation 39.69  
Sea Level Pressure  
Sea Level Pressure 30.46 in    
Wind  
Wind Speed 1 mph (NNE)    
Max Wind Speed 5 mph    
Max Gust Speed -    
Visibility 10 miles    
Events      
T = Trace of Precipitation, MM = Missing Value Source: NWS Daily Summary

Daily Weather History Graph

Daily Weather History Graph

Search for Another Location

Airport:

Trip Planner

Search our weather history database for the weather conditions in past years. The results will help you decide how hot, cold, wet, or windy it might be!

Date:

Astronomy

Nov. 13, 2012 Rise Set
Actual Time 6:51 AM CST 5:13 PM CST
Civil Twilight 6:24 AM CST 5:40 PM CST
Nautical Twilight 5:54 AM CST 6:11 PM CST
Astronomical Twilight 5:24 AM CST 6:41 PM CST
Moon 6:30 AM CST (11/13) 5:08 PM CST (11/13)
Length of Visible Light 11h 15m
Length of Day
10h 22m
Waning Crescent, 0% of the Moon is Illuminated
Nov 13
Waning Crescent
Nov 13
New
Nov 20
First Quarter
Nov 28
Full
Dec 6
Last Quarter

Hourly Weather History & Observations

Time (CST) Temp. Windchill Dew Point Humidity Pressure Visibility Wind Dir Wind Speed Gust Speed Precip Events Conditions
12:15 AM 32.0 °F 27.5 °F 32.0 °F 100% 30.52 in 10.0 mi South 4.6 mph - N/A   Clear
12:35 AM 33.8 °F 30.8 °F 32.0 °F 93% 30.52 in 10.0 mi South 3.5 mph - N/A   Clear
12:55 AM 33.8 °F - 32.0 °F 93% 30.52 in 10.0 mi Calm Calm - N/A   Clear
1:35 AM 32.0 °F - 32.0 °F 100% 30.52 in 10.0 mi Calm Calm - N/A   Clear
1:55 AM 32.0 °F - 32.0 °F 100% 30.52 in 10.0 mi Calm Calm - N/A   Clear
2:15 AM 32.0 °F - 32.0 °F 100% 30.53 in 10.0 mi Calm Calm - N/A   Clear
2:35 AM 32.0 °F - 32.0 °F 100% 30.52 in 10.0 mi Calm Calm - N/A   Clear
3:55 AM 32.0 °F - 32.0 °F 100% 30.52 in 10.0 mi Calm Calm - N/A   Clear
4:15 AM 30.2 °F - 28.4 °F 93% 30.52 in 10.0 mi Calm Calm - N/A   Clear
4:35 AM 30.2 °F - 28.4 °F 93% 30.52 in 10.0 mi Calm Calm - N/A   Clear
4:55 AM 30.2 °F - 30.2 °F 100% 30.51 in 10.0 mi Calm Calm - N/A   Clear
5:15 AM 32.0 °F - 32.0 °F 100% 30.51 in 10.0 mi Calm Calm - N/A   Clear
5:35 AM 28.4 °F - 28.4 °F 100% 30.51 in 7.0 mi Calm Calm - N/A   Clear
6:15 AM 28.4 °F - 28.4 °F 100% 30.52 in 10.0 mi Calm Calm - N/A   Clear
6:35 AM 28.4 °F - 28.4 °F 100% 30.53 in 10.0 mi Calm Calm - N/A   Clear
6:55 AM 30.2 °F - 30.2 °F 100% 30.53 in 10.0 mi Calm Calm - N/A   Clear
7:15 AM 28.4 °F - 28.4 °F 100% 30.53 in 10.0 mi Calm Calm - N/A   Clear
7:35 AM 30.2 °F - 30.2 °F 100% 30.53 in 10.0 mi Calm Calm - N/A   Clear
7:55 AM 32.0 °F - 32.0 °F 100% 30.54 in 10.0 mi Calm Calm - N/A   Clear
8:15 AM 32.0 °F - 32.0 °F 100% 30.55 in 10.0 mi Calm Calm - N/A   Clear
8:35 AM 33.8 °F - 32.0 °F 93% 30.56 in 10.0 mi Calm Calm - N/A   Clear
8:55 AM 35.6 °F - 33.8 °F 93% 30.56 in 10.0 mi Calm Calm - N/A   Clear
9:15 AM 37.4 °F - 33.8 °F 87% 30.56 in 10.0 mi Calm Calm - N/A   Clear
9:35 AM 41.0 °F - 33.8 °F 76% 30.56 in 10.0 mi Calm Calm - N/A   Clear
9:55 AM 42.8 °F - 33.8 °F 70% 30.55 in 10.0 mi Calm Calm - N/A   Clear
10:15 AM 44.6 °F - 33.8 °F 66% 30.54 in 10.0 mi Calm Calm - N/A   Clear
10:35 AM 46.4 °F - 32.0 °F 57% 30.53 in 10.0 mi Calm Calm - N/A   Clear
10:55 AM 51.8 °F - 32.0 °F 47% 30.53 in 10.0 mi Calm Calm - N/A   Clear
11:15 AM 51.8 °F - 33.8 °F 50% 30.51 in 10.0 mi Calm Calm - N/A   Clear
11:35 AM 53.6 °F - 30.2 °F 41% 30.49 in 10.0 mi Calm Calm - N/A   Clear
11:55 AM 55.4 °F - 30.2 °F 38% 30.48 in 10.0 mi Calm Calm - N/A   Scattered Clouds
12:15 PM 55.4 °F - 32.0 °F 41% 30.47 in 10.0 mi Calm Calm - N/A   Clear
12:35 PM 55.4 °F - 32.0 °F 41% 30.45 in 10.0 mi Calm Calm - N/A   Clear
12:55 PM 55.4 °F - 30.2 °F 38% 30.44 in 10.0 mi Calm Calm - N/A   Clear
1:15 PM 55.4 °F - 30.2 °F 38% 30.43 in 10.0 mi NE 3.5 mph - N/A   Clear
1:35 PM 55.4 °F - 30.2 °F 38% 30.42 in 10.0 mi NE 4.6 mph - N/A   Scattered Clouds
1:55 PM 55.4 °F - 28.4 °F 36% 30.41 in 10.0 mi Calm Calm - N/A   Clear
2:15 PM 59.0 °F - 28.4 °F 31% 30.40 in 10.0 mi North 4.6 mph - N/A   Clear
2:35 PM 59.0 °F - 28.4 °F 31% 30.39 in 10.0 mi North 4.6 mph - N/A   Clear
2:55 PM 59.0 °F - 28.4 °F 31% 30.38 in 10.0 mi Calm Calm - N/A   Clear
3:15 PM 59.0 °F - 26.6 °F 29% 30.38 in 10.0 mi Calm Calm - N/A   Clear
3:35 PM 59.0 °F - 26.6 °F 29% 30.37 in 10.0 mi Calm Calm - N/A   Clear
3:55 PM 59.0 °F - 26.6 °F 29% 30.37 in 10.0 mi North 3.5 mph - N/A   Clear
4:15 PM 59.0 °F - 26.6 °F 29% 30.37 in 10.0 mi Calm Calm - N/A   Clear
4:35 PM 55.4 °F - 28.4 °F 36% 30.37 in 10.0 mi Calm Calm - N/A   Clear
4:55 PM 55.4 °F - 30.2 °F 38% 30.36 in 10.0 mi Calm Calm - N/A   Clear
5:15 PM 53.6 °F - 30.2 °F 41% 30.36 in 10.0 mi Calm Calm - N/A   Clear
5:35 PM 51.8 °F - 30.2 °F 44% 30.36 in 10.0 mi Calm Calm - N/A   Clear
5:55 PM 51.8 °F - 32.0 °F 47% 30.37 in 3.0 mi Calm Calm - N/A   Haze
6:15 PM 44.6 °F - 32.0 °F 61% 30.38 in 10.0 mi Calm Calm - N/A   Clear
6:35 PM 42.8 °F - 32.0 °F 66% 30.39 in 10.0 mi Calm Calm - N/A   Clear
6:55 PM 46.4 °F - 32.0 °F 57% 30.39 in 10.0 mi Calm Calm - N/A   Clear
7:15 PM 44.6 °F - 32.0 °F 61% 30.40 in 10.0 mi Calm Calm - N/A   Clear
7:35 PM 42.8 °F - 32.0 °F 66% 30.41 in 10.0 mi Calm Calm - N/A   Clear
7:55 PM 41.0 °F - 32.0 °F 70% 30.41 in 10.0 mi Calm Calm - N/A   Clear
8:15 PM 42.8 °F - 32.0 °F 66% 30.41 in 10.0 mi Calm Calm - N/A   Clear
8:35 PM 42.8 °F - 32.0 °F 66% 30.42 in 10.0 mi Calm Calm - N/A   Clear
8:55 PM 39.2 °F - 32.0 °F 75% 30.43 in 10.0 mi Calm Calm - N/A   Clear
9:15 PM 39.2 °F - 33.8 °F 81% 30.43 in 10.0 mi Calm Calm - N/A   Clear
9:35 PM 39.2 °F - 33.8 °F 81% 30.43 in 10.0 mi Calm Calm - N/A   Clear
9:55 PM 41.0 °F - 33.8 °F 76% 30.43 in 10.0 mi Calm Calm - N/A   Clear
10:15 PM 41.0 °F - 35.6 °F 81% 30.43 in 10.0 mi Calm Calm - N/A   Clear
10:35 PM 39.2 °F - 33.8 °F 81% 30.42 in 10.0 mi Calm Calm - N/A   Clear
10:55 PM 41.0 °F - 33.8 °F 76% 30.42 in 10.0 mi Calm Calm - N/A   Clear
11:15 PM 39.2 °F - 35.6 °F 87% 30.41 in 10.0 mi Calm Calm - N/A   Clear
11:35 PM 41.0 °F - 35.6 °F 81% 30.41 in 10.0 mi Calm Calm - N/A   Clear
11:55 PM 41.0 °F - 35.6 °F 81% 30.41 in 10.0 mi Calm Calm - N/A   Clear